Tiempo cada hora Allaire

Hoy, 3 Agosto, Martes

Tiempo Temperatura Precipitaciones Viento Presión Humedad
00:00 +14°C° 0 mm 1 mps 757 mmHg 86%
01:00 +14°C° 0 mm 2 mps 757 mmHg 87%
02:00 +14°C° 0 mm 2 mps 757 mmHg 89%
03:00 +13°C° 0 mm 2 mps 757 mmHg 90%
04:00 +13°C° 0 mm 2 mps 757 mmHg 88%
05:00 +14°C° 0 mm 2 mps 757 mmHg 86%
06:00 +14°C° 0 mm 2 mps 757 mmHg 84%
07:00 +14°C° 0.2 mm 2 mps 757 mmHg 83%
08:00 +14°C° 0.2 mm 2 mps 757 mmHg 83%
09:00 +15°C° 0.2 mm 1 mps 757 mmHg 82%
10:00 +15°C° 0.1 mm 2 mps 757 mmHg 82%
11:00 +15°C° 0.1 mm 2 mps 757 mmHg 81%
12:00 +15°C° 0.1 mm 2 mps 757 mmHg 80%
13:00 +16°C° 0 mm 2 mps 757 mmHg 75%
14:00 +17°C° 0 mm 3 mps 756 mmHg 69%
15:00 +19°C° 0 mm 3 mps 756 mmHg 64%
16:00 +18°C° 0.9 mm 3 mps 755 mmHg 73%
17:00 +16°C° 0.9 mm 2 mps 755 mmHg 82%
18:00 +15°C° 0.9 mm 2 mps 755 mmHg 90%
19:00 +15°C° 1 mm 2 mps 755 mmHg 92%
20:00 +14°C° 1 mm 3 mps 755 mmHg 94%
21:00 +14°C° 1 mm 3 mps 755 mmHg 96%
22:00 +14°C° 1.3 mm 4 mps 754 mmHg 96%
23:00 +14°C° 1.3 mm 5 mps 754 mmHg 96%

Mañana, 4 Agosto, Miércoles

Tiempo Temperatura Precipitaciones Viento Presión Humedad
00:00 +14°C° 1.3 mm 6 mps 753 mmHg 97%
01:00 +14°C° 0.6 mm 5 mps 753 mmHg 97%
02:00 +14°C° 0.6 mm 5 mps 753 mmHg 97%
03:00 +14°C° 0.6 mm 5 mps 752 mmHg 97%
04:00 +14°C° 0.4 mm 5 mps 752 mmHg 97%
05:00 +14°C° 0.4 mm 5 mps 752 mmHg 97%
06:00 +14°C° 0.4 mm 5 mps 752 mmHg 97%
07:00 +14°C° 0.5 mm 5 mps 753 mmHg 96%
08:00 +14°C° 0.5 mm 5 mps 753 mmHg 96%
09:00 +14°C° 0.5 mm 6 mps 754 mmHg 96%
10:00 +14°C° 0.1 mm 6 mps 754 mmHg 92%
11:00 +15°C° 0.1 mm 5 mps 754 mmHg 89%
12:00 +16°C° 0.1 mm 5 mps 755 mmHg 85%
13:00 +17°C° 0 mm 5 mps 755 mmHg 77%
14:00 +20°C° 0 mm 4 mps 755 mmHg 68%
15:00 +21°C° 0 mm 4 mps 755 mmHg 60%
16:00 +21°C° 0 mm 3 mps 755 mmHg 61%
17:00 +20°C° 0 mm 3 mps 755 mmHg 63%
18:00 +20°C° 0 mm 2 mps 756 mmHg 65%
19:00 +18°C° 0 mm 2 mps 756 mmHg 71%
20:00 +17°C° 0 mm 2 mps 756 mmHg 77%
21:00 +16°C° 0 mm 2 mps 756 mmHg 83%
22:00 +15°C° 0 mm 2 mps 756 mmHg 84%
23:00 +15°C° 0 mm 2 mps 756 mmHg 85%

Pasado mañana, 5 Agosto, Jueves

Tiempo Temperatura Precipitaciones Viento Presión Humedad
00:00 +15°C° 0 mm 2 mps 756 mmHg 86%
01:00 +14°C° 0 mm 2 mps 756 mmHg 88%
02:00 +14°C° 0 mm 2 mps 755 mmHg 90%
03:00 +12°C° 0 mm 3 mps 755 mmHg 92%
04:00 +13°C° 0 mm 3 mps 755 mmHg 91%
05:00 +14°C° 0 mm 3 mps 754 mmHg 90%
06:00 +16°C° 0 mm 3 mps 754 mmHg 89%
07:00 +15°C° 0.1 mm 4 mps 754 mmHg 88%
08:00 +16°C° 0.1 mm 5 mps 753 mmHg 87%
09:00 +17°C° 0.1 mm 6 mps 753 mmHg 86%
10:00 +17°C° 0.2 mm 6 mps 753 mmHg 88%
11:00 +17°C° 0.2 mm 7 mps 752 mmHg 90%
12:00 +17°C° 0.2 mm 7 mps 752 mmHg 91%
13:00 +18°C° 0.3 mm 7 mps 751 mmHg 83%
14:00 +21°C° 0.3 mm 8 mps 751 mmHg 75%
15:00 +22°C° 0.3 mm 8 mps 750 mmHg 67%
16:00 +21°C° 0.1 mm 8 mps 750 mmHg 70%
17:00 +20°C° 0.1 mm 7 mps 750 mmHg 73%
18:00 +18°C° 0.1 mm 7 mps 750 mmHg 76%
19:00 +18°C° 0 mm 7 mps 751 mmHg 82%
20:00 +17°C° 0 mm 6 mps 751 mmHg 87%
21:00 +16°C° 0 mm 6 mps 751 mmHg 92%
22:00 +16°C° 0 mm 6 mps 751 mmHg 92%
23:00 +15°C° 0 mm 6 mps 751 mmHg 91%

6 Agosto, Viernes

Tiempo Temperatura Precipitaciones Viento Presión Humedad
00:00 +15°C° 0 mm 6 mps 751 mmHg 90%
01:00 +15°C° 0 mm 6 mps 751 mmHg 90%
02:00 +15°C° 0 mm 6 mps 751 mmHg 89%
03:00 +15°C° 0 mm 6 mps 751 mmHg 89%
04:00 +15°C° 0 mm 6 mps 751 mmHg 88%
05:00 +15°C° 0 mm 5 mps 751 mmHg 86%
06:00 +15°C° 0 mm 5 mps 751 mmHg 85%
07:00 +16°C° 0 mm 5 mps 751 mmHg 77%
08:00 +17°C° 0 mm 6 mps 751 mmHg 69%
09:00 +20°C° 0 mm 6 mps 752 mmHg 61%
10:00 +20°C° 0.1 mm 7 mps 752 mmHg 59%
11:00 +21°C° 0.1 mm 7 mps 752 mmHg 57%
12:00 +21°C° 0.1 mm 7 mps 752 mmHg 55%
13:00 +22°C° 0 mm 7 mps 751 mmHg 54%
14:00 +22°C° 0 mm 7 mps 751 mmHg 52%
15:00 +22°C° 0 mm 7 mps 751 mmHg 51%
16:00 +21°C° 0 mm 6 mps 751 mmHg 55%
17:00 +20°C° 0 mm 6 mps 751 mmHg 60%
18:00 +19°C° 0 mm 5 mps 751 mmHg 64%
19:00 +17°C° 0 mm 5 mps 751 mmHg 74%
20:00 +15°C° 0 mm 4 mps 751 mmHg 83%
21:00 +14°C° 0 mm 4 mps 750 mmHg 92%
22:00 +14°C° 0.2 mm 4 mps 750 mmHg 92%
23:00 +14°C° 0.2 mm 4 mps 750 mmHg 93%

7 Agosto, Sábado

Tiempo Temperatura Precipitaciones Viento Presión Humedad
00:00 +14°C° 0.2 mm 4 mps 750 mmHg 93%
01:00 +14°C° 0.6 mm 5 mps 749 mmHg 93%
02:00 +14°C° 0.6 mm 5 mps 749 mmHg 93%
03:00 +15°C° 0.6 mm 5 mps 749 mmHg 93%
04:00 +14°C° 0.2 mm 5 mps 749 mmHg 92%
05:00 +14°C° 0.2 mm 5 mps 749 mmHg 92%
06:00 +14°C° 0.2 mm 4 mps 749 mmHg 91%
07:00 +15°C° 0 mm 5 mps 749 mmHg 83%
08:00 +17°C° 0 mm 6 mps 750 mmHg 75%
09:00 +20°C° 0 mm 7 mps 750 mmHg 66%
10:00 +20°C° 0.1 mm 7 mps 750 mmHg 62%
11:00 +21°C° 0.1 mm 7 mps 751 mmHg 58%
12:00 +22°C° 0.1 mm 7 mps 751 mmHg 54%
13:00 +22°C° 0.1 mm 7 mps 752 mmHg 55%
14:00 +22°C° 0.1 mm 7 mps 752 mmHg 55%
15:00 +22°C° 0.1 mm 7 mps 752 mmHg 55%
16:00 +21°C° 0.1 mm 7 mps 753 mmHg 58%
17:00 +20°C° 0.1 mm 6 mps 753 mmHg 62%
18:00 +20°C° 0.1 mm 6 mps 754 mmHg 65%
19:00 +17°C° 0 mm 5 mps 755 mmHg 71%
20:00 +16°C° 0 mm 5 mps 755 mmHg 77%
21:00 +14°C° 0 mm 4 mps 756 mmHg 82%
22:00 +13°C° 0 mm 4 mps 756 mmHg 86%
23:00 +13°C° 0 mm 3 mps 757 mmHg 90%

8 Agosto, Domingo

Tiempo Temperatura Precipitaciones Viento Presión Humedad
00:00 +12°C° 0 mm 3 mps 757 mmHg 93%
01:00 +12°C° 0 mm 3 mps 757 mmHg 94%
02:00 +12°C° 0 mm 3 mps 758 mmHg 94%
03:00 +12°C° 0 mm 3 mps 758 mmHg 95%
04:00 +13°C° 0 mm 2 mps 758 mmHg 94%
05:00 +13°C° 0 mm 2 mps 758 mmHg 93%
06:00 +14°C° 0 mm 2 mps 759 mmHg 92%
07:00 +16°C° 0 mm 3 mps 759 mmHg 81%
08:00 +18°C° 0 mm 4 mps 759 mmHg 71%
09:00 +20°C° 0 mm 5 mps 760 mmHg 60%
10:00 +21°C° 0 mm 5 mps 760 mmHg 58%
11:00 +21°C° 0 mm 6 mps 760 mmHg 57%
12:00 +22°C° 0 mm 6 mps 760 mmHg 55%
13:00 +22°C° 0 mm 6 mps 760 mmHg 56%
14:00 +22°C° 0 mm 6 mps 760 mmHg 56%
15:00 +22°C° 0 mm 6 mps 761 mmHg 57%
16:00 +21°C° 0 mm 6 mps 761 mmHg 60%
17:00 +20°C° 0 mm 5 mps 761 mmHg 62%
18:00 +20°C° 0 mm 5 mps 761 mmHg 65%
19:00 +18°C° 0 mm 4 mps 762 mmHg 74%
20:00 +17°C° 0 mm 4 mps 762 mmHg 83%
21:00 +14°C° 0 mm 3 mps 762 mmHg 92%
22:00 +14°C° 0 mm 3 mps 763 mmHg 92%
23:00 +13°C° 0 mm 3 mps 763 mmHg 93%
Mostrar más

Necesitamos Su Consentimiento

Meteoprog y nuestros Proveedores de Servicios pueden almacenar y acceder a sus datos personales como cookies, identificadores de dispositivo u otras tecnologías similares de su dispositivo y procesar dichos datos para personalizar contenido y anuncios, además de ofrecer funciones de redes sociales y analizar el tráfico.

  • Almacenar y/o acceder a información en su dispositivo

    Se puede almacenar o acceder a cookies, identificadores de dispositivo u otra información de su dispositivo para los fines anteriormente indicados.

  • Anuncios y contenido personalizados, medición de anuncios y contenido, percepciones del público, y desarrollo de productos

    Los anuncios y el contenido pueden personalizarse en base a su perfil. Se pueden añadir más datos para personalizar mejor los anuncios y contenidos. Se puede medir el rendimiento de los anuncios y contenidos. Se puede obtener la percepción sobre el público que ha visto los anuncios y contenidos. Dichos datos pueden usarse para desarrollar o mejorar la experiencia del usuario, sistemas y software.

Al hacer clic en ‘Estoy De Acuerdo’ usted permitirá el uso de las cookies, identificadores de dispositivo, balizas web u otras tecnologías similares indicadas. Su configuración puede cambiarse desde el navegador de su dispositivo.

Para ciertos fines, los intereses legítimos pueden ser considerados por encima del consentimiento. Puede leer más sobre ello en nuestra Política de Privacidad y Cookies.